"Pseudo-MPEC" for A1099Ei

Created 2018 Oct 15 1:18:04 UT using Find_Orb

Click here for an explanation of pseudo-MPECs

 
 Astrometry: 
     A1099Ei  C2018 10 10#%Astrometryls[j5y#=2xaHGsdWXS?a=xLd!RiHL$8Bm:Aq1u)0T05
     A1099Ei  C2018 10 106+1%Ot](9yEkKdF#Sn)X`KKUFvfBZP2e;ODj#\sp[ra`\a=j0GJLT05
     A1099Ei  C2018 10 10'YM$FI^P[#ldH6g*/]?\x%:BbJCdNJF.wJ.b^[e*FgAgq*Kjf#o+T05
     A1099Ei  C2018 10 10=lGAi2p9XXj\fjDJc/QPmZrGGvp,mbSi,?9yQqj3]41anOptZB6[T05
     A1099Ei KC2018 10 10:]\jTh^puMofF7F4t4y5)N,W.`yyA:\W*6yB-uIcji?je$TTXj],X31
     A1099Ei KC2018 10 10Pno6nn2bPiFAii(8Eb(eRbP1=*i-AO76DM^l9Fw)lL5j(ERd0^L;X31
     A1099Ei KC2018 10 10oiy^PA4g12oI%.ok;t=Qta3s9w*xIyGmx,Cste*,4Sevgh;_I5G\X31
     A1099Ei |C2018 10 13/:Ym8\l`OjFMd@lHVl23D*O*S+i'EN89@RheRo)La+RA;xxNfBX;807
     A1099Ei |C2018 10 13f31/o12C#KdUm)-c2Y$qe3dxaPtsE!_2fo'Q[KT`icSrJp^]O/IO807
     A1099Ei |C2018 10 13Bg']q!1pVp(C?0NT5):$FHPqhTGwWvtD#1oYBe5mHXf2aAGj5%j]807
     A1099Ei KC2018 10 13/aVQ#(MTr14Aj0-#U8jAy1hCFG4^VO:aEqisKFk]42'DsaH(8IS#X31
     A1099Ei KC2018 10 13kQ#8?aHnU/:My3REXredacted;iYDqWX%2qJ@NoqR.6mV*#@x*s1X31
     A1099Ei KC2018 10 13\iLQhw.,/h`B_db4Z3@h#gx-jr,tkq1/;]:)ZIii7OeP:'tn8qn%X31
     A1099Ei KC2018 10 13JgeyX\0BQG\Z[_I$PyD'mKEg@^]kQpB5AwL+?#RU^g;alk`6rS;rX31
     A1099Ei KC2018 10 13t50W'(/QJ'Al$mQwJ^SbKHJq90af#8llHJMP3%:FsmxJq\WZa%*YX31
     A1099Ei KC2018 10 13sn@_fwwYDy]q)pP)dP*7w\bor?OYyYlr'gWnd.Mba0ZjZdsx;W68X31
     A1099Ei KC2018 10 139Ra1K6EJI7BQ$SyC;L+6?lJ*@yw87kDSVpi!@mm=xqpw:fIh9?[cI19
     A1099Ei KC2018 10 13IU?RXnwVGTLj/G]d[N4XB[BCtbX7e3Wh?i\=y]KLMZM177Fe%%-ZI19
     A1099Ei KC2018 10 13:*#il5Z1HkSg4i*4L/`Tj3e[$eF]D-=_7tN]/bI1TyhF]Lm7OEr-I19
     A1099Ei KC2018 10 141rkUYbnq7v._W294e[ZH^`og,*fX7Q*(-dEU5\RC\7!n*5YeI\#/I47
     A1099Ei KC2018 10 14Q$P8b=JyHU\Us'e.==+y.,Hlu[WDq5.#m^;UUeT$tj3GKxUhoaB#I47
     A1099Ei KC2018 10 14GjoC%'AQpOTchoC4L!c=i0hg@W7[Sn(w%EGSov-XdVvbEc.?Rbt8I47
     A1099Ei KC2018 10 14s1sLYIw[%v(3k%@ICQy+vI*uU]);0nh\seeNj_KeH.x9gr=1#pyrR58
     A1099Ei  C2018 10 14s]nO`+XUMCR!hlLnWN/hD[+U_!%^NyBBN\'`7w34*hvop-CM1qwpT05
     A1099Ei  C2018 10 14\L+A^=vfy#MjU:$_][5RQBuX^a)51cL]IG]-dYt=7!-F;e_xFt*RT05
     A1099Ei KC2018 10 14dTAnCRWo6MhZ-bwxc^DXJ)1p#;sug'[$Ilt_Mj2;KsWHqta;R1x=R58
     A1099Ei  C2018 10 14[U38N.%/%:4N,b33,yNWM_ZDYA:f,l)AHYv%^`*RN29jyLvxUTK:T05
     A1099Ei  C2018 10 14hJtc`o0CjX`J/?bI#;w5Tg4Z=f5K8P9J40KDSpWmt@f\iiQf$_-8T05
     A1099Ei `C2018 10 14@$%UPq+ig/F!sKy'uVtov;,?*]_cwlU=q4L!+2DLAj';p'Bk7p;hQ62
     A1099Ei `C2018 10 14eG-p^m3[9hRd#%ebk0ifTp'$w#p5N1Wm2d=p1PRK?*ivcU^T?MAsQ62
     A1099Ei `C2018 10 14xxuZHdb3AUE`s;q#GvB,frou1$:8yg6U?25APQTLaSf4I77p44T,Q62
     A1099Ei KC2018 10 15LO=PCVOdl**XtKc%Z5f3U6l8-Zc425=P?:`n%RS/e'4N,n=M\r'rX31
     A1099Ei KC2018 10 15d?YEyw322QRkJ.-Ys4H!uHRjO%UI8TH5A4HLPTrRTBaV4P$6%tT'X31
     A1099Ei KC2018 10 15MEW,TZDb\4)q60Gj(TxJ;nOE*e$%t,,s=lMwji3$L*:\,^dNEOCPX31

Station data:
(807) Cerro Tololo Observatory, La Serena  (S30.169136 W70.805900)  Chile.
   1.5-m Ritchey-Chrétien.
(I19) Observatorio El Gato Gris, Tanti  (S31.356805 W64.592890)  Argentina.
(I47) Pierre Auger Observatory, Malargüe  (S35.495442 W69.449700)  Argentina.
(Q62) iTelescope Observatory, Siding Spring  (S31.273289 E149.064420)
   Australia/NSW. 0.50-m f/6.8 astrograph + CCD + focal reducer, 0.70-m f/6.6
   astrograph + CCD.
(R58) Beverly-Begg Observatory, Dunedin  (S45.864384 E170.490390)  New
   Zealand.
(T05) ATLAS-HKO, Haleakala  (N20.707573 W156.257010)  US/Hawaii.  Observers
   L. Denneau, A. Heinze, H. Weiland, B. Stalder, J. Tonry, A. Sherstyuk.
   Measurers L. Denneau, A. Heinze, J. Tonry. 0.5-m f/2.0 Schmidt + CCD.
(X31) Galileo Galilei Observatory, Oro Verde  (S31.823022 W60.520660)
   Argentina.

Orbital elements:  A1099Ei
   Perihelion 2018 Nov 29.879908 +/- 0.0976 TT = 21:07:04 (JD 2458452.379908)
Epoch 2018 Oct 15.0 TT = JDT 2458406.5   Earth MOID: 0.3328   Ma: 0.0798
M 346.71052 +/- 0.18                (J2000 ecliptic)          AutoNEOCP
n   0.28965788 +/- 0.0034           Peri.   14.73323 +/- 0.08
a   2.26227718 +/- 0.0177           Node    24.34817 +/- 0.08
e   0.4168488 +/- 0.00378           Incl.   28.20394 +/- 0.12
P   3.40                   H 18.2   G  0.15   U  8.9  
q 1.31924953 +/- 0.00186    Q 3.20530483 +/- 0.034
From 34 observations 2018 Oct. 10-15; mean residual 0".29
Residuals in arcseconds: 
181010 T05  .02-  .07-    181013 X31  .99-  .30-    181014 T05  .26-  .28+    
181010 T05  .15-  .48-    181013 X31  .13-  .11+    181014 R58  .15+  .29+    
181010 T05  .04-  .11+    181013 X31  .27-  .33-    181014 T05  .53+  .12+    
181010 T05  .28-  .29+    181013 X31  .26-  .06+    181014 T05  .33+  .15-    
181010 X31  .53+  .40-    181013 I19  .01+  .01-    181014 Q62  .14-  .25-    
181010 X31  .63+  .42+    181013 I19  .29+  .05+    181014 Q62  .09-  .25-    
181010 X31  .46-  .10+    181013 I19  .07-  .09+    181014 Q62  .09-  .27-    
181013 807  .19+  .07+    181014 I47  .49+  .12-    181015 X31  .06-  .38+    
181013 807  .11+  .14+    181014 I47  .42-  .18-    181015 X31  .19-  .26+    
181013 807  .13-  .14+    181014 I47  .41-  .15-    181015 X31  .05-  .18+    
181013 X31  .17+  .13+    181014 R58  .04-  .27-    
181013 X31  .04-  .22+    181014 T05  .73+  .05-    

Ephemerides (geocentric):
Date (UTC) HH   RA              Dec         delta   r     elong  mag " sig PA
---- -- -- --  -------------   -----------  ------ ------ -----  --- ---- ---
2018 10 15 01  23 11 44.282   -32 12 39.11  .52431 1.3902 129.4 18.9  .17  64
2018 10 15 02  23 11 39.715   -32 10 30.15  .52430 1.3901 129.3 18.9  .18  64
2018 10 15 03  23 11 35.156   -32 08 21.10  .52428 1.3899 129.3 18.9  .19  64
2018 10 15 04  23 11 30.607   -32 06 11.95  .52426 1.3898 129.3 18.9  .20  64
2018 10 15 05  23 11 26.065   -32 04 02.72  .52425 1.3897 129.3 18.9  .21  64
2018 10 15 06  23 11 21.533   -32 01 53.39  .52423 1.3896 129.3 18.9  .23  64
2018 10 15 07  23 11 17.009   -31 59 43.98  .52422 1.3895 129.2 18.9  .24  64
2018 10 15 08  23 11 12.494   -31 57 34.47  .52420 1.3893 129.2 18.9  .25  64
2018 10 15 09  23 11 07.988   -31 55 24.87  .52419 1.3892 129.2 18.9  .26  65
2018 10 15 10  23 11 03.490   -31 53 15.19  .52417 1.3891 129.2 18.9  .28  65
2018 10 15 11  23 10 59.001   -31 51 05.41  .52416 1.3890 129.2 18.9  .29  65
2018 10 15 12  23 10 54.520   -31 48 55.55  .52415 1.3888 129.1 18.9  .30  65
2018 10 15 13  23 10 50.049   -31 46 45.59  .52413 1.3887 129.1 18.9  .32  65
2018 10 15 14  23 10 45.585   -31 44 35.55  .52412 1.3886 129.1 18.9  .33  65
2018 10 15 15  23 10 41.131   -31 42 25.42  .52411 1.3885 129.1 18.9  .34  65
2018 10 15 16  23 10 36.685   -31 40 15.20  .52410 1.3884 129.1 18.9  .36  65
2018 10 15 17  23 10 32.248   -31 38 04.89  .52408 1.3882 129.0 18.9  .37  65
2018 10 15 18  23 10 27.820   -31 35 54.50  .52407 1.3881 129.0 18.9  .39  65
2018 10 15 19  23 10 23.400   -31 33 44.02  .52406 1.3880 129.0 18.9  .40  65
2018 10 15 20  23 10 18.989   -31 31 33.45  .52405 1.3879 129.0 18.9  .42  65
2018 10 15 21  23 10 14.587   -31 29 22.80  .52404 1.3878 129.0 18.9  .43  65
2018 10 15 22  23 10 10.193   -31 27 12.05  .52403 1.3876 128.9 18.9  .45  65
2018 10 15 23  23 10 05.808   -31 25 01.23  .52402 1.3875 128.9 18.9  .46  65
2018 10 16 00  23 10 01.432   -31 22 50.31  .52401 1.3874 128.9 18.9  .48  65
2018 10 16 01  23 09 57.065   -31 20 39.32  .52400 1.3873 128.9 18.9  .49  65
2018 10 16 02  23 09 52.706   -31 18 28.23  .52400 1.3871 128.9 18.9  .51  65
2018 10 16 03  23 09 48.356   -31 16 17.06  .52399 1.3870 128.8 18.9  .53  65
2018 10 16 04  23 09 44.014   -31 14 05.81  .52398 1.3869 128.8 18.9  .54  65
2018 10 16 05  23 09 39.682   -31 11 54.47  .52397 1.3868 128.8 18.9  .56  65
2018 10 16 06  23 09 35.358   -31 09 43.05  .52397 1.3867 128.8 18.9  .57  65
2018 10 16 07  23 09 31.042   -31 07 31.54  .52396 1.3865 128.8 18.9  .59  66
2018 10 16 08  23 09 26.736   -31 05 19.96  .52395 1.3864 128.7 18.9  .61  66
2018 10 16 09  23 09 22.438   -31 03 08.28  .52395 1.3863 128.7 18.9  .63  66
2018 10 16 10  23 09 18.149   -31 00 56.53  .52394 1.3862 128.7 18.9  .64  66
2018 10 16 11  23 09 13.869   -30 58 44.69  .52393 1.3861 128.7 18.9  .66  66
2018 10 16 12  23 09 09.597   -30 56 32.77  .52393 1.3859 128.7 18.9  .68  66
2018 10 16 13  23 09 05.334   -30 54 20.77  .52393 1.3858 128.6 18.9  .70  66
2018 10 16 14  23 09 01.080   -30 52 08.69  .52392 1.3857 128.6 18.9  .72  66
2018 10 16 15  23 08 56.834   -30 49 56.52  .52392 1.3856 128.6 18.9  .73  66
2018 10 16 16  23 08 52.597   -30 47 44.27  .52391 1.3855 128.6 18.9  .75  66
2018 10 16 17  23 08 48.369   -30 45 31.95  .52391 1.3853 128.6 18.9  .77  66
2018 10 16 18  23 08 44.150   -30 43 19.54  .52391 1.3852 128.5 18.9  .79  66
2018 10 16 19  23 08 39.939   -30 41 07.05  .52391 1.3851 128.5 18.9  .81  66
2018 10 16 20  23 08 35.737   -30 38 54.48  .52390 1.3850 128.5 18.9  .83  66
2018 10 16 21  23 08 31.544   -30 36 41.83  .52390 1.3849 128.5 18.9  .85  66
2018 10 16 22  23 08 27.360   -30 34 29.11  .52390 1.3848 128.5 18.9  .87  66
2018 10 16 23  23 08 23.184   -30 32 16.30  .52390 1.3846 128.4 18.9  .89  66
2018 10 17 00  23 08 19.017   -30 30 03.42  .52390 1.3845 128.4 18.9  .91  66